Tracking 31027 objects as of 19-Jul-2025
HD Live streaming from Space Station
objects crossing your sky now

CZ-3B R/B

Track CZ-3B R/B now!
10-day predictions


NORAD ID: 44077
Int'l Code: 2019-017B
Perigee: 194.8 km
Apogee: 16,614.0 km
Inclination: 26.8 °
Period: 297.9 minutes
Semi major axis: 14775 km
RCS: Unknown
Launch date: March 31, 2019
Source: People's Republic of China (PRC)
Launch site: Xichang Space Center, China (XSC)

Note: This is a ROCKET BODY
Your satellite tracking list
DMSP 5D-2 F13 DEB
Track 1 satellite(s)




NASA's NSSDC Master Catalog

Two Line Element Set (TLE):
1 44077U 19017B   25199.50122902  .00059804 -20769-7  10155-2 0  9999
2 44077  26.8003 182.6206 5556272 221.0309  80.1440  4.83386539 73159
Source of the keplerian elements: AFSPC